Regional Weather Roundup
Issued by NWS

Home | Current Version | Previous Version | Text Only | Print | Product List | Glossary Off
Versions: 1 2 3 4 5 6 7 8 9 10 11 12 13 14 15 16 17 18 19 20 21 22 23 24 25 26 27 28 29 30 31 32 33 34 35 36 37 38 39 40 41 42 43 44 45 46 47 48 49 50

000
ASUS43 KOAX 130502
RWRNE

WEATHER ROUNDUP FOR NEBRASKA
NATIONAL WEATHER SERVICE OMAHA NE
1100 PM CST FRI FEB 12 2016

NOTES: SATELLITE DATA IS BEING USED TO AUGMENT CLOUD COVER ABOVE
       12000 FEET.
       "FAIR" INDICATES FEW OR NO CLOUDS BELOW 12,000 FEET WITH NO
       SIGNIFICANT WEATHER AND/OR OBSTRUCTIONS TO VISIBILITY.

  * THESE STATIONS DO NOT REPORT WEATHER SUCH AS RAIN...SNOW OR FOG.

NEZ001>004-019>022-054>056-130600-
NEBRASKA PANHANDLE

CITY           SKY/WX    TMP DP  RH WIND       PRES   REMARKS
SCOTTSBLUFF    CLOUDY    33  30  88 SE12      30.26F WCI  24
ALLIANCE       CLOUDY    31  29  92 S17       30.28F WCI  19
CHADRON        CLOUDY    34  29  82 S13       30.26F WCI  25
KIMBALL        HVY SNOW  30  30 100 S15       30.25F VSB 1/4 WCI  19
SIDNEY         FOG       30  29  96 S15       30.29F VSB 1/2 WCI  19
$$

NEZ057>060-069>072-079>082-130600-
SOUTHWEST NEBRASKA

CITY           SKY/WX    TMP DP  RH WIND       PRES   REMARKS
NORTH PLATTE   CLOUDY    25  22  88 SE12      30.43S WCI  14
IMPERIAL         N/A     30  27  88 SE15      30.37F WCI  19
LEXINGTON      CLOUDY    24  18  77 SE7       30.48S WCI  16
MCCOOK         FOG       26  26 100 SE12      30.45R VSB 1/4 WCI  16
$$

NEZ005>010-023>029-035>040-094-130600-
NORTH CENTRAL NEBRASKA

CITY           SKY/WX    TMP DP  RH WIND       PRES   REMARKS
VALENTINE      CLOUDY    22  15  75 SE12      30.42F WCI  10
AINSWORTH      CLOUDY    20  13  73 SE10      30.45S WCI   9
BROKEN BOW     CLOUDY    20  16  84 SE10      30.47R WCI   9
ORD            CLOUDY    18  12  77 SE6       30.52S WCI  10
$$

NEZ041-046>049-061>064-073>077-083>087-130600-
SOUTH CENTRAL NEBRASKA

CITY           SKY/WX    TMP DP  RH WIND       PRES   REMARKS
GRAND ISLAND   CLOUDY    18   9  68 E9        30.56S WCI   7
AURORA         CLOUDY    18  11  74 E6        30.56S WCI  10
HASTINGS       CLOUDY    19  11  70 E10       30.53F WCI   7
HEBRON         CLOUDY    20  14  76 NE9       30.58F WCI  10
KEARNEY *      CLOUDY    19  16  86 E10       30.51S WCI   8
YORK           CLOUDY    16   9  73 E7        30.58S WCI   6
$$

NEZ011>018-030>034-042>045-130600-
NORTHEAST NEBRASKA

CITY           SKY/WX    TMP DP  RH WIND       PRES   REMARKS
NORFOLK        CLOUDY    13   3  64 NE8       30.58S WCI   2
ALBION         CLOUDY    15   7  69 NE3       30.56S
BLAIR          MOCLDY    12   1  62 N9        30.60F WCI   0
COLUMBUS *     CLOUDY    16   0  48 NE7       30.59F WCI   6
FREMONT        CLOUDY    13   1  60 NE6       30.63R WCI   4
TEKAMAH        CLOUDY    10   1  67 N6        30.66S WCI   0
$$

NEZ050>053-065>068-078-088>093-130600-
SOUTHEAST NEBRASKA

CITY           SKY/WX    TMP DP  RH WIND       PRES   REMARKS
LINCOLN        CLOUDY    15   5  64 NE12      30.63F WCI   2
OMAHA EPPLEY   CLOUDY    14   3  61 N10       30.65F WCI   1
BEATRICE       CLOUDY    18   9  68 NE7       30.61F WCI   8
FALLS CITY     CLOUDY    17   4  56 N8        30.62F WCI   7
NEBRASKA CITY  CLOUDY    15   2  57 NE12      30.61F WCI   2
PLATTSMOUTH    CLOUDY    14   3  61 N7        30.61F WCI   4
$$

NEZ044-045-051>053-067-130600-
OMAHA AREA

CITY           SKY/WX    TMP DP  RH WIND       PRES   REMARKS
OMAHA EPPLEY   CLOUDY    14   3  61 N10       30.65F WCI   1
BLAIR          MOCLDY    12   1  62 N9        30.60F WCI   0
FREMONT        CLOUDY    13   1  60 NE6       30.63R WCI   4
OFFUTT AFB     CLOUDY    14   2  57 N7        30.63F WCI   4
PLATTSMOUTH    CLOUDY    14   3  61 N7        30.61F WCI   4
WAHOO          CLOUDY    14   5  68 N8        30.62S WCI   3
$$



USA.gov is the U.S. government's official web portal to all federal, state and local government web resources and services.